[[{"header":{"parameterUnit":"m.s-1","parameterCategory":1,"la1":30.2991,"la2":30.254,"lo1":-89.0895,"lo2":-89.0444,"dy":0.0017,"dx":0.0017,"nx":28,"ny":28,"refTime":"2023-09-13T21:00:00:Z","depth":0,"parameterNumber":2,"parameterNumberName":"U-component_of_WINDS"},"data":[0,0,0,0,0,0,0,0,0,0,0,0,0,0,0,0,0,0,0,0,0,0,0,0,0,0,0,0,0,0,0,0,0,0,0,0,0,0,0,0,0,0,0,0,0,0,0,0,0,0,0,0,0,0,0,0,0,0,-2.5593,-2.5592,0,-2.5503,-2.5502,-2.5501,-2.533,-2.5326,-2.5323,-2.532,-2.5231,-2.5232,-2.5233,0,0,0,0,0,0,0,0,0,0,0,0,0,-2.562,-2.5621,-2.5593,-2.5592,-2.5591,-2.5503,-2.5502,-2.55,-2.533,-2.5326,-2.5322,-2.5318,-2.5231,-2.5232,-2.5233,0,0,0,0,0,0,0,0,0,0,0,0,0,-2.5577,-2.5621,-2.5593,-2.5495,-2.5486,-2.5503,-2.5502,-2.55,-2.5331,-2.5326,-2.5321,-2.5317,-2.5231,-2.5232,-2.5233,-2.534,0,0,-2.5236,-2.5237,0,0,0,0,0,0,0,0,-2.558,-2.5576,-2.5511,-2.5502,-2.5491,-2.5422,-2.5478,-2.5446,-2.5332,-2.539,-2.532,-2.5314,-2.5299,-2.5294,-2.5288,-2.5336,-2.5332,-2.5236,-2.5237,-2.5238,-2.5238,0,0,0,0,0,0,0,-2.5583,-2.5579,-2.5557,-2.551,-2.5498,-2.5456,-2.5445,-2.5472,-2.5374,-2.5385,-2.5372,-2.5363,-2.5293,-2.5288,-2.5285,-2.5331,-2.5236,-2.5237,-2.5238,-2.5239,-2.5458,-2.5463,0,0,0,0,0,0,-2.56,-2.5583,-2.556,-2.5555,-2.5524,-2.546,-2.5447,-2.545,-2.5373,-2.5356,-2.5368,-2.5356,-2.5288,-2.5284,-2.5281,-2.5399,-2.5238,-2.5239,-2.5239,-2.5453,-2.5459,-2.5465,0,0,0,0,0,0,-2.5601,-2.56,-2.5564,-2.5565,-2.5557,-2.5465,-2.5469,-2.545,-2.5445,-2.536,-2.5342,-2.538,-2.5284,-2.528,-2.5325,-2.5393,-2.5239,-2.524,-2.5447,-2.5455,-2.5462,-2.5637,0,0,0,0,0,0,-2.5603,-2.5601,-2.564,-2.5567,-2.5558,-2.561,-2.5473,-2.5452,-2.5447,-2.543,-2.5367,-2.5352,-2.528,-2.5325,-2.5327,-2.5392,-2.5241,-2.544,-2.545,-2.5459,-2.5624,-2.5649,-2.5671,0,0,0,0,0,-2.5604,-2.5695,-2.5643,-2.5641,-2.5605,-2.5614,-2.5608,-2.5523,-2.5453,-2.5492,-2.5437,-2.5354,-2.5386,-2.5331,-2.5332,-2.5399,-2.5435,-2.5447,-2.5459,-2.5614,-2.5644,-2.567,0,0,0,0,0,0,-2.578,-2.5683,-2.5625,-2.5695,-2.5664,-2.5585,-2.5631,-2.5558,-2.5547,-2.5532,-2.5427,-2.5414,-2.5474,-2.5441,-2.5381,-2.5496,-2.5397,-2.541,-2.5515,-2.5544,-2.5567,-2.5572,-2.5242,0,0,0,0,0,-2.5826,-2.5841,-2.5756,-2.5825,-2.5812,-2.5725,-2.5726,-2.5662,-2.5626,-2.5612,-2.5561,-2.553,-2.5532,-2.5537,-2.5535,-2.5619,-2.5602,-2.5665,-2.5689,-2.5708,-2.572,-2.5759,-2.5786,-2.5503,-2.5503,-2.5502,0,0,-2.5923,-2.5872,-2.5888,-2.5859,-2.5827,-2.5844,-2.5715,-2.5739,-2.5751,-2.5616,-2.5655,-2.5617,-2.5575,-2.564,-2.5666,-2.5615,-2.5794,-2.5723,-2.5739,-2.574,-2.5774,-2.5801,-2.5825,-2.551,-2.5509,-2.5508,0,0,-2.6107,-2.6071,-2.6123,-2.6093,-2.6046,-2.5987,-2.6,-2.5932,-2.5901,-2.5938,-2.5837,-2.585,-2.5857,-2.5831,-2.5819,-2.5991,-2.5914,-2.5994,-2.6115,-2.6155,-2.6177,-2.6196,-2.6255,-2.6278,-2.6006,-2.6007,-2.6007,0,-2.6233,-2.6254,-2.616,-2.6189,-2.6179,-2.6056,-2.6108,-2.6085,-2.6041,-2.6036,-2.5979,-2.5984,-2.5948,-2.6003,-2.6045,-2.6041,-2.6051,-2.6,-2.6181,-2.6199,-2.6216,-2.6271,-2.6294,-2.6016,-2.6015,-2.6014,-2.6013,0,-2.641,-2.6426,-2.6474,-2.6432,-2.6427,-2.6468,-2.638,-2.6387,-2.6324,-2.6272,-2.631,-2.6262,-2.6247,-2.6256,-2.6196,-2.6303,-2.6272,-2.62,-2.6098,-2.6254,-2.6304,-2.6325,-2.603,-2.6027,-2.6024,-2.6022,0,0,-2.6701,-2.6605,-2.6624,-2.6602,-2.6541,-2.6552,-2.6588,-2.6571,-2.6578,-2.6552,-2.6578,-2.6586,-2.6518,-2.6504,-2.644,-2.6476,-2.6612,-2.6398,-2.6395,-2.6437,-2.6724,-2.6777,-2.6803,-2.6561,-2.6565,-2.6568,-2.6727,0,-2.6869,-2.6922,-2.6838,-2.6911,-2.6923,-2.6807,-2.6837,-2.6803,-2.6755,-2.6759,-2.6706,-2.6712,-2.6624,-2.6614,-2.6644,-2.6589,-2.6668,-2.6577,-2.6583,-2.6585,-2.6595,-2.683,-2.6886,-2.7038,-2.6746,-2.6749,-2.6752,0,-2.7073,-2.7054,-2.7127,-2.7059,-2.7061,-2.709,-2.7067,-2.7073,-2.7032,-2.6994,-2.6978,-2.6901,-2.6931,-2.6834,-2.6873,-2.6812,-2.681,-2.6784,-2.6788,-2.6783,-2.6676,-2.6829,-2.7085,-2.7107,-2.6782,-2.678,-2.6778,0,-2.7274,-2.7268,-2.731,-2.7295,-2.7218,-2.7241,-2.721,-2.7163,-2.7158,-2.7139,-2.7134,-2.712,-2.7112,-2.7102,-2.7023,-2.696,-2.7071,-2.6968,-2.7039,-2.7041,-2.7065,-2.7065,-2.7322,-2.707,-2.7069,-2.7069,-2.7068,0,-2.7469,-2.7518,-2.7398,-2.7424,-2.7475,-2.7379,-2.7432,-2.7389,-2.7349,-2.7364,-2.7265,-2.7282,-2.7177,-2.7183,-2.7122,-2.7161,-2.716,-2.7129,-2.7112,-2.7136,-2.714,-2.7132,-2.7118,-2.7075,-2.7073,-2.7072,-2.7071,0,-2.7702,-2.7624,-2.7661,-2.7585,-2.7567,-2.7608,-2.7542,-2.7562,-2.7508,-2.7528,-2.7528,-2.7442,-2.7443,-2.7364,-2.735,-2.7308,-2.7374,-2.7339,-2.7387,-2.7375,-2.7449,-2.7442,-2.7708,-2.7737,-2.747,-2.7472,-2.7475,0,-2.783,-2.7864,-2.7791,-2.7793,-2.7766,-2.7772,-2.7765,-2.7672,-2.767,-2.7625,-2.7651,-2.7643,-2.7632,-2.7639,-2.7576,-2.7564,-2.7526,-2.7621,-2.7524,-2.7547,-2.7524,-2.7522,-2.7524,-2.764,-2.7644,-2.7647,-2.7649,0,-2.8065,-2.8024,-2.8018,-2.7998,-2.7993,-2.7974,-2.7948,-2.7956,-2.7853,-2.7856,-2.7855,-2.7846,-2.783,-2.7824,-2.78,-2.7768,-2.7691,-2.768,-2.7695,-2.7719,-2.7744,-2.7728,-2.7439,-2.7674,-2.7671,-2.7669,-2.7668,-2.7667,-2.8246,-2.827,-2.8221,-2.8217,-2.8188,-2.8166,-2.818,-2.8127,-2.8124,-2.8102,-2.8048,-2.8056,-2.8013,-2.7972,-2.7947,-2.7952,-2.7905,-2.7928,-2.7933,-2.7939,-2.7952,-2.7746,-2.7948,-2.7947,-2.7946,-2.7945,-2.7945,0,-2.8472,-2.8435,-2.8433,-2.8398,-2.8396,-2.8323,-2.8291,-2.8293,-2.83,-2.8266,-2.8256,-2.8255,-2.8248,-2.8184,-2.8169,-2.8185,-2.8149,-2.8184,-2.818,-2.8174,-2.7997,-2.7983,-2.8213,-2.8213,-2.8213,-2.8213,-2.8213,-2.8213,-2.859,-2.8625,-2.8579,-2.8599,-2.8562,-2.8567,-2.8554,-2.8533,-2.8504,-2.8506,-2.8499,-2.8458,-2.8411,-2.8392,-2.8382,-2.8363,-2.8362,-2.8408,-2.8378,-2.8213,-2.8187,-2.8162,-2.8149,-2.8409,-2.8409,-2.8553,-2.8555,-2.8556]},{"header":{"parameterUnit":"m.s-1","parameterCategory":1,"la1":30.2991,"la2":30.254,"lo1":-89.0895,"lo2":-89.0444,"dy":0.0017,"dx":0.0017,"nx":28,"ny":28,"refTime":"2023-09-13T21:00:00:Z","depth":0,"parameterNumber":3,"parameterNumberName":"V-component_of_WINDS"},"data":[0,0,0,0,0,0,0,0,0,0,0,0,0,0,0,0,0,0,0,0,0,0,0,0,0,0,0,0,0,0,0,0,0,0,0,0,0,0,0,0,0,0,0,0,0,0,0,0,0,0,0,0,0,0,0,0,0,0,-1.6931,-1.6932,0,-1.7054,-1.7055,-1.7056,-1.712,-1.7121,-1.7121,-1.7121,-1.7243,-1.7246,-1.7249,0,0,0,0,0,0,0,0,0,0,0,0,0,-1.6747,-1.675,-1.693,-1.6932,-1.6934,-1.7053,-1.7055,-1.7057,-1.712,-1.7121,-1.7121,-1.7121,-1.7242,-1.7246,-1.725,0,0,0,0,0,0,0,0,0,0,0,0,0,-1.6844,-1.6751,-1.693,-1.698,-1.6985,-1.7053,-1.7055,-1.7057,-1.712,-1.7121,-1.7121,-1.7121,-1.7241,-1.7246,-1.725,-1.7277,0,0,-1.7265,-1.7267,0,0,0,0,0,0,0,0,-1.6838,-1.685,-1.6971,-1.6977,-1.6983,-1.7072,-1.7035,-1.7131,-1.712,-1.7069,-1.7121,-1.7121,-1.7186,-1.7195,-1.7218,-1.7283,-1.7288,-1.7265,-1.7268,-1.727,-1.7271,0,0,0,0,0,0,0,-1.6831,-1.6845,-1.6979,-1.6973,-1.698,-1.6995,-1.7009,-1.7054,-1.7125,-1.7074,-1.7078,-1.7092,-1.7189,-1.7213,-1.7221,-1.729,-1.7265,-1.7269,-1.7272,-1.7274,-1.7382,-1.7382,0,0,0,0,0,0,-1.6817,-1.6839,-1.6975,-1.6983,-1.6909,-1.6998,-1.7013,-1.7043,-1.7125,-1.7137,-1.7092,-1.7095,-1.7205,-1.7216,-1.7226,-1.7262,-1.727,-1.7275,-1.7277,-1.7382,-1.7382,-1.7382,0,0,0,0,0,0,-1.6813,-1.6829,-1.697,-1.6913,-1.6932,-1.7001,-1.7034,-1.7045,-1.707,-1.7139,-1.7151,-1.7104,-1.7205,-1.7219,-1.7264,-1.7267,-1.7277,-1.7281,-1.7382,-1.7382,-1.7382,-1.7335,0,0,0,0,0,0,-1.6807,-1.6827,-1.6838,-1.6912,-1.6935,-1.7007,-1.7034,-1.7048,-1.7078,-1.7083,-1.7153,-1.7165,-1.7207,-1.7256,-1.7268,-1.7274,-1.7285,-1.7382,-1.7382,-1.7382,-1.7336,-1.7333,-1.7331,0,0,0,0,0,-1.68,-1.682,-1.6839,-1.6855,-1.6951,-1.7007,-1.702,-1.7069,-1.7078,-1.709,-1.7134,-1.7163,-1.7265,-1.726,-1.7275,-1.7281,-1.7382,-1.7382,-1.7382,-1.7338,-1.7334,-1.7331,0,0,0,0,0,0,-1.6743,-1.683,-1.6852,-1.6896,-1.6944,-1.7018,-1.7035,-1.7063,-1.7108,-1.7111,-1.7168,-1.7183,-1.7222,-1.7257,-1.725,-1.7311,-1.7326,-1.7329,-1.7288,-1.7285,-1.7282,-1.7273,-1.7289,0,0,0,0,0,-1.6736,-1.6776,-1.6849,-1.688,-1.6904,-1.6965,-1.6991,-1.7024,-1.7076,-1.7096,-1.7144,-1.7191,-1.7234,-1.7261,-1.7305,-1.7342,-1.7357,-1.7353,-1.735,-1.7348,-1.7349,-1.7371,-1.737,-1.7382,-1.7382,-1.7382,0,0,-1.672,-1.6773,-1.6794,-1.687,-1.6911,-1.695,-1.6981,-1.7021,-1.705,-1.7102,-1.7147,-1.7184,-1.7241,-1.7281,-1.7302,-1.7311,-1.7349,-1.7348,-1.7345,-1.7348,-1.7371,-1.737,-1.7368,-1.7382,-1.7382,-1.7382,0,0,-1.6713,-1.6757,-1.6788,-1.6828,-1.6891,-1.6931,-1.6938,-1.7008,-1.7035,-1.7082,-1.7121,-1.7156,-1.7229,-1.7268,-1.7297,-1.7303,-1.7331,-1.7316,-1.73,-1.7321,-1.732,-1.7319,-1.7321,-1.7321,-1.7317,-1.7317,-1.7317,0,-1.6686,-1.6747,-1.68,-1.6838,-1.6869,-1.6919,-1.695,-1.6987,-1.7059,-1.7079,-1.7089,-1.7181,-1.7223,-1.7273,-1.7275,-1.7297,-1.7306,-1.7308,-1.7316,-1.7316,-1.7316,-1.7318,-1.7319,-1.7315,-1.7315,-1.7315,-1.7315,0,-1.6711,-1.6752,-1.677,-1.684,-1.6873,-1.6907,-1.6964,-1.6992,-1.7022,-1.7061,-1.7107,-1.7159,-1.7214,-1.7228,-1.7258,-1.7283,-1.7287,-1.7305,-1.7321,-1.7312,-1.7315,-1.7316,-1.7311,-1.7312,-1.7313,-1.7313,0,0,-1.6671,-1.6769,-1.6775,-1.6807,-1.6879,-1.6911,-1.6947,-1.7002,-1.7024,-1.7072,-1.7103,-1.7163,-1.7181,-1.7214,-1.7248,-1.7266,-1.7267,-1.7283,-1.7285,-1.7278,-1.7297,-1.7283,-1.7283,-1.7286,-1.7286,-1.7287,-1.7293,0,-1.6673,-1.6741,-1.6789,-1.6838,-1.6877,-1.6924,-1.6955,-1.7002,-1.7039,-1.7076,-1.7117,-1.7159,-1.7179,-1.72,-1.7219,-1.7263,-1.7272,-1.7263,-1.7314,-1.7315,-1.7299,-1.7285,-1.727,-1.7273,-1.7294,-1.7294,-1.7295,0,-1.6685,-1.6732,-1.6785,-1.6853,-1.6871,-1.6898,-1.6952,-1.6987,-1.7041,-1.7066,-1.7103,-1.7138,-1.7177,-1.7189,-1.7243,-1.7236,-1.726,-1.7284,-1.7285,-1.7292,-1.7304,-1.7291,-1.7275,-1.7275,-1.7297,-1.7297,-1.7297,0,-1.665,-1.6727,-1.6769,-1.6795,-1.6874,-1.6892,-1.6926,-1.698,-1.701,-1.7056,-1.7076,-1.7125,-1.7152,-1.7189,-1.7237,-1.7241,-1.7285,-1.7301,-1.7307,-1.7305,-1.7314,-1.7313,-1.7301,-1.7329,-1.7329,-1.7329,-1.7329,0,-1.6647,-1.6678,-1.6754,-1.6779,-1.6815,-1.6869,-1.6902,-1.694,-1.6987,-1.702,-1.7063,-1.7093,-1.7154,-1.719,-1.7227,-1.7266,-1.7278,-1.7299,-1.7308,-1.7295,-1.7292,-1.7311,-1.7312,-1.7329,-1.7329,-1.7329,-1.7329,0,-1.6614,-1.6667,-1.6715,-1.6787,-1.6805,-1.6828,-1.6889,-1.6915,-1.6955,-1.6995,-1.7008,-1.707,-1.7115,-1.7166,-1.7228,-1.7253,-1.7289,-1.7303,-1.7271,-1.7276,-1.7279,-1.7277,-1.7279,-1.7282,-1.7307,-1.7307,-1.7307,0,-1.6609,-1.6634,-1.6708,-1.6734,-1.6767,-1.6807,-1.6838,-1.6892,-1.6922,-1.6985,-1.7003,-1.7052,-1.7094,-1.7164,-1.7213,-1.7261,-1.7276,-1.7273,-1.7283,-1.7269,-1.7276,-1.7273,-1.7276,-1.727,-1.727,-1.7269,-1.7269,0,-1.6594,-1.6619,-1.6662,-1.6714,-1.6749,-1.6793,-1.6837,-1.6856,-1.6918,-1.695,-1.6997,-1.703,-1.7093,-1.7141,-1.7195,-1.7228,-1.7259,-1.7265,-1.7269,-1.7255,-1.7236,-1.7246,-1.7263,-1.7265,-1.7265,-1.7266,-1.7266,-1.7266,-1.6575,-1.6599,-1.6655,-1.6701,-1.6741,-1.6782,-1.681,-1.6853,-1.6894,-1.6951,-1.698,-1.7027,-1.7079,-1.7155,-1.7187,-1.7224,-1.7234,-1.7239,-1.724,-1.7241,-1.7237,-1.723,-1.7234,-1.7234,-1.7234,-1.7234,-1.7235,0,-1.6562,-1.66,-1.6642,-1.6704,-1.674,-1.6767,-1.6818,-1.6846,-1.6887,-1.6934,-1.6975,-1.7029,-1.7075,-1.7128,-1.7178,-1.7197,-1.7212,-1.7208,-1.7207,-1.7214,-1.7226,-1.7217,-1.7195,-1.7195,-1.7195,-1.7195,-1.7195,-1.7195,-1.6559,-1.6601,-1.6632,-1.6694,-1.6732,-1.6779,-1.6806,-1.6844,-1.6881,-1.694,-1.6979,-1.7014,-1.7063,-1.7117,-1.716,-1.7175,-1.7191,-1.7183,-1.7201,-1.721,-1.7214,-1.7217,-1.7209,-1.7186,-1.7186,-1.7187,-1.7187,-1.7187]}]]